Location: Pescara
(42.4670°N, 14.2170°E)
Time: 02:38:28
(UTC+02:00)

ISS - Pass Details

Date: 14 May 2021
Orbit: 417 x 422 km, 51.6° (Epoch: 14 June)

Event Time Altitude Azimuth Distance (km) Brightness Sun altitude
Rises 22:48:03 0° 246° (WSW) 2,355 0.2 -21.6°
Reaches altitude 10° 22:50:10 10° 251° (WSW) 1,495 -0.8 -21.8°
Maximum altitude 22:53:28 54° 330° (NNW) 515 -3.1 -22.2°
Enters shadow 22:55:16 24° 40° (NE) 926 -1.9 -22.3°
Exits shadow 22:57:17 - 51° (NE) 1,705 -0.6 -22.5°
Sets 22:58:56 0° 54° (NE) 2,372 0.1 -22.7°
